Вернуться в каталог

KUIPER-00016

АктивенСвязьLEO
NORAD 63732·PAYLOAD·🇺🇸 United States

Запущен Apr 28, 2025 с Cape Canaveral Space Force Station

Loading…

Ближайшие Пролёты (ближайшие 24 часа)

TLE

СвежийSource: CelesTrak SupGP

Эпоха: Sep 14, 2026, 19:23 UTC

1 63732C 25088J   26257.80774306  .00005544  00000+0  72584-3 0  2574
2 63732  51.9011 354.2913 0000377 101.7572 144.6773 14.79915958    18

Отслеживайте KUIPER-00016 в реальном времени с AllMySat

Download on the App Store